DW1105 Weather Reports


Display with metric or nautical units.
time (UTC)temp
F
wind
direction
speed
MPH
gust
MPH
rain 1hr
in
rain 24hr
in
rain mn
in
humidity
%
barometer
mb
20260902092330 64 132 1.0 4.0 0.00 0.58 0.00 97 1019.0
20260902091826 64 145 0.0 4.0 0.00 0.58 0.00 97 1019.0
20260902091324 64 145 1.0 4.0 0.00 0.58 0.00 97 1019.0
20260902090820 64 118 0.0 3.0 0.00 0.58 0.00 97 1018.9
20260902090317 64 123 1.0 3.0 0.00 0.58 0.00 97 1019.0
20260902085814 64 130 0.0 1.0 0.00 0.58 0.00 97 1019.0
20260902085315 64 130 0.0 2.0 0.00 0.58 0.00 97 1019.1
20260902084811 64 161 0.0 4.0 0.00 0.58 0.00 96 1019.1
20260902084329 64 129 1.0 4.0 0.00 0.58 0.00 97 1019.1
20260902083825 64 110 0.0 2.0 0.00 0.58 0.00 97 1018.8
20260902083322 64 99 0.0 2.0 0.00 0.58 0.00 97 1018.8
20260902082819 64 72 0.0 1.0 0.00 0.58 0.00 97 1018.7
20260902082318 64 133 0.0 1.0 0.00 0.58 0.00 97 1018.7
20260902081818 64 162 0.0 0.0 0.00 0.58 0.00 97 1018.6
20260902081315 64 146 0.0 1.0 0.00 0.58 0.00 97 1018.6
20260902080812 64 98 0.0 2.0 0.00 0.58 0.00 97 1018.6
20260902080328 65 93 0.0 2.0 0.00 0.58 0.00 97 1018.5
20260902075825 65 143 0.0 3.0 0.00 0.58 0.00 97 1018.6
20260902075323 65 129 1.0 3.0 0.00 0.58 0.00 97 1018.5
20260902074819 65 110 1.0 2.0 0.00 0.58 0.00 97 1018.5
20260902074319 65 118 1.0 2.0 0.00 0.58 0.00 97 1018.5
20260902073816 65 165 0.0 0.0 0.00 0.58 0.00 97 1018.5
20260902073313 65 76 0.0 2.0 0.00 0.58 0.00 97 1018.4
20260902072830 65 76 0.0 2.0 0.00 0.58 0.00 97 1018.5
20260902072327 64 150 1.0 2.0 0.00 0.58 0.00 97 1018.6
20260902071823 65 179 0.0 1.0 0.00 0.58 0.00 97 1018.6
20260902071321 64 182 0.0 2.0 0.00 0.58 0.00 96 1018.4
20260902070821 65 351 0.0 2.0 0.00 0.58 0.00 96 1018.3
20260902070318 65 121 0.0 4.0 0.00 0.58 0.00 96 1018.3
20260902065815 65 97 2.0 4.0 0.00 0.58 0.00 96 1018.2
20260902065312 65 147 0.0 2.0 0.00 0.58 0.00 96 1018.1
20260902064829 65 50 0.0 5.0 0.00 0.58 0.00 96 1018.3
20260902064326 65 205 1.0 5.0 0.00 0.58 0.00 96 1018.3
20260902063822 65 36 0.0 3.0 0.00 0.58 0.00 96 1018.2
20260902063323 65 325 0.0 2.0 0.00 0.58 0.00 96 1018.2
20260902062820 65 62 0.0 2.0 0.00 0.58 0.00 96 1018.1
20260902062316 65 115 0.0 3.0 0.00 0.58 0.00 96 1018.0
20260902061812 65 174 1.0 3.0 0.00 0.58 0.00 96 1018.1
20260902061311 65 104 0.0 2.0 0.00 0.58 0.00 96 1018.2
20260902060827 65 119 0.0 2.0 0.00 0.58 0.00 96 1018.3
20260902060324 65 116 0.0 2.0 0.00 0.58 0.00 96 1018.2
20260902055824 65 164 0.0 3.0 0.00 0.58 0.00 96 1018.3
20260902055321 65 146 0.0 4.0 0.00 0.58 0.00 96 1018.4
20260902054818 65 190 1.0 4.0 0.00 0.58 0.00 96 1018.6
20260902054315 65 134 0.0 0.0 0.00 0.58 0.00 96 1018.7
20260902053811 65 134 0.0 0.0 0.00 0.58 0.00 96 1018.7
20260902053328 65 146 0.0 2.0 0.00 0.58 0.00 96 1018.7
20260902052825 65 137 1.0 3.0 0.00 0.58 0.00 96 1018.6
20260902052326 65 139 1.0 3.0 0.00 0.58 0.00 96 1018.8
20260902051823 65 140 0.0 3.0 0.00 0.58 0.00 96 1018.8
20260902051319 65 110 2.0 3.0 0.00 0.58 0.00 96 1018.7
20260902050815 65 105 0.0 2.0 0.00 0.58 0.00 96 1018.7
20260902050312 65 93 0.0 2.0 0.00 0.58 0.00 96 1018.6
20260902045829 65 96 0.0 3.0 0.00 0.59 0.00 96 1018.6
20260902045326 65 115 1.0 3.0 0.00 0.59 0.00 96 1018.6
20260902044827 65 121 1.0 3.0 0.00 0.59 0.00 96 1018.5
20260902044324 65 128 1.0 3.0 0.00 0.59 0.00 96 1018.5
20260902043821 65 88 1.0 3.0 0.00 0.59 0.00 95 1018.4
20260902043318 65 90 0.0 0.0 0.00 0.59 0.00 95 1018.4
20260902042814 66 100 0.0 3.0 0.00 0.59 0.00 96 1018.3
20260902042313 66 114 1.0 3.0 0.00 0.59 0.00 96 1018.4
20260902041813 66 105 0.0 2.0 0.00 0.59 0.00 96 1018.4
20260902041329 66 101 1.0 2.0 0.00 0.59 0.00 95 1018.3
20260902040826 66 140 0.0 1.0 0.00 0.59 0.00 96 1018.2
20260902040323 66 112 0.0 1.0 0.00 0.59 0.00 96 1018.0
20260902035819 66 96 0.0 3.0 0.00 0.60 0.59 95 1018.2
20260902035317 66 96 1.0 6.0 0.00 0.60 0.59 95 1018.0
20260902034813 66 103 2.0 6.0 0.00 0.60 0.59 95 1017.9
20260902034314 66 119 1.0 6.0 0.00 0.60 0.59 95 1018.0
20260902033811 66 89 1.0 6.0 0.00 0.60 0.59 95 1017.9
20260902033328 66 299 0.0 4.0 0.00 0.60 0.59 95 1017.8
20260902032824 66 142 0.0 2.0 0.00 0.60 0.59 95 1017.7
20260902032322 66 182 1.0 3.0 0.00 0.60 0.59 96 1017.6
20260902031819 66 141 0.0 6.0 0.00 0.60 0.59 96 1017.6
20260902031316 67 165 1.0 6.0 0.00 0.60 0.59 95 1017.4
20260902030816 67 290 1.0 6.0 0.00 0.60 0.59 96 1017.2
20260902030313 67 124 1.0 7.0 0.00 0.60 0.59 96 1017.2
20260902025830 67 104 2.0 7.0 0.00 0.60 0.59 96 1017.1
20260902025327 67 88 1.0 4.0 0.00 0.60 0.59 95 1017.3
20260902024824 67 119 2.0 8.0 0.00 0.60 0.59 95 1017.3
20260902024322 67 82 2.0 8.0 0.00 0.60 0.59 95 1017.3
20260902023818 68 115 2.0 4.0 0.00 0.60 0.59 95 1017.2
20260902023319 68 58 1.0 6.0 0.00 0.60 0.59 96 1017.0
20260902022815 68 91 2.0 7.0 0.00 0.60 0.59 95 1016.9
20260902022313 69 104 1.0 7.0 0.00 0.60 0.59 95 1016.8
20260902021830 69 81 1.0 8.0 0.00 0.60 0.59 96 1016.8
20260902021327 69 88 1.0 8.0 0.00 0.60 0.59 96 1016.7
20260902020824 69 58 2.0 5.0 0.00 0.60 0.59 96 1016.6
20260902020321 69 192 2.0 6.0 0.00 0.60 0.59 96 1016.3
20260902015820 69 165 3.0 6.0 0.00 0.60 0.59 96 1016.1
20260902015319 70 126 0.0 6.0 0.00 0.60 0.59 96 1016.1
20260902014815 70 97 2.0 6.0 0.00 0.60 0.59 96 1016.0
20260902014311 70 144 2.0 6.0 0.00 0.60 0.59 96 1015.9
20260902013828 70 117 2.0 6.0 0.00 0.60 0.59 95 1015.9
20260902013325 71 77 1.0 6.0 0.00 0.60 0.59 96 1016.0
20260902012822 71 175 0.0 4.0 0.00 0.60 0.59 96 1015.9
20260902012322 71 169 1.0 6.0 0.00 0.60 0.59 96 1015.9
20260902011818 71 149 0.0 6.0 0.00 0.60 0.59 96 1015.8
20260902011319 71 138 0.0 0.0 0.01 0.60 0.59 96 1015.8
20260902010816 71 132 0.0 0.0 0.01 0.60 0.59 96 1015.7
20260902010313 71 132 0.0 0.0 0.01 0.60 0.59 96 1015.6
20260902005829 71 132 0.0 0.0 0.01 0.60 0.59 96 1015.2
20260902005327 71 132 0.0 0.0 0.01 0.60 0.59 95 1015.3
20260902004824 71 132 0.0 0.0 0.01 0.60 0.59 95 1015.0
20260902004324 71 132 0.0 0.0 0.01 0.60 0.59 95 1014.7
20260902003820 71 132 0.0 0.0 0.01 0.60 0.59 95 1014.8
20260902003317 71 132 0.0 0.0 0.01 0.60 0.59 95 1014.9
20260902002814 71 132 0.0 0.0 0.01 0.60 0.59 95 1015.0
20260902002311 71 132 0.0 0.0 0.01 0.60 0.59 95 1014.8
20260902001828 71 132 0.0 0.0 0.01 0.60 0.59 95 1014.7
20260902001325 71 119 0.0 0.0 0.00 0.59 0.58 95 1014.8
20260902000825 71 119 0.0 0.0 0.00 0.59 0.58 95 1014.9
20260902000323 71 119 0.0 0.0 0.09 0.59 0.58 95 1014.9
20260901235819 71 119 0.0 0.0 0.20 0.59 0.58 95 1014.7
20260901235315 71 119 0.0 0.0 0.21 0.59 0.58 94 1014.4
20260901234812 71 119 0.0 0.0 0.27 0.59 0.58 94 1014.4
20260901234329 71 119 0.0 0.0 0.34 0.59 0.58 94 1014.7
20260901233825 71 119 0.0 0.0 0.34 0.59 0.58 94 1014.8
20260901233326 71 119 0.0 0.0 0.40 0.59 0.58 94 1014.5
20260901232823 71 192 0.0 0.0 0.47 0.59 0.58 94 1014.6
20260901232320 71 196 0.0 1.0 0.48 0.59 0.58 94 1014.5
20260901231817 71 196 0.0 2.0 0.48 0.59 0.58 93 1014.6
20260901231314 71 103 0.0 2.0 0.48 0.59 0.58 93 1014.8
20260901230811 71 154 0.0 3.0 0.48 0.59 0.58 93 1015.2
20260901230328 71 188 0.0 3.0 0.39 0.50 0.49 93 1015.5
20260901225827 71 196 1.0 3.0 0.28 0.39 0.38 92 1014.4
20260901225325 71 55 1.0 3.0 0.27 0.38 0.37 91 1014.9
20260901224822 71 67 0.0 2.0 0.21 0.32 0.31 90 1014.6
20260901224319 72 94 0.0 5.0 0.14 0.25 0.24 89 1014.3
20260901223816 73 217 1.0 7.0 0.13 0.24 0.23 87 1014.7
20260901223313 75 152 1.0 16.0 0.07 0.18 0.17 83 1014.1
20260901222828 78 22 9.0 16.0 0.00 0.11 0.10 85 1014.9
20260901222331 79 117 1.0 9.0 0.00 0.11 0.10 87 1013.5
20260901221827 80 164 1.0 4.0 0.00 0.11 0.10 87 1013.2
20260901221323 80 166 1.0 4.0 0.00 0.11 0.10 87 1013.2
20260901220820 80 100 0.0 3.0 0.00 0.11 0.10 87 1013.3
20260901220317 80 184 0.0 0.0 0.00 0.11 0.10 88 1013.6
20260901215813 80 184 0.0 0.0 0.00 0.11 0.10 87 1013.5
20260901215330 80 184 0.0 0.0 0.00 0.11 0.10 88 1013.5
20260901214810 80 184 0.0 0.0 0.00 0.11 0.10 87 1013.5
20260901214328 80 185 0.0 0.0 0.00 0.11 0.10 87 1013.7
20260901213824 81 185 0.0 0.0 0.00 0.11 0.10 87 1013.6
20260901213321 81 185 0.0 0.0 0.00 0.11 0.10 86 1013.7
20260901212817 81 185 0.0 0.0 0.00 0.11 0.10 86 1013.8
20260901212315 82 185 0.0 0.0 0.00 0.11 0.10 85 1013.8
20260901211812 82 185 0.0 0.0 0.00 0.11 0.10 84 1013.8
20260901211311 82 185 0.0 0.0 0.00 0.11 0.10 83 1013.8
20260901210828 82 120 0.0 0.0 0.00 0.11 0.10 83 1013.7
20260901210325 83 120 0.0 0.0 0.00 0.11 0.10 82 1013.7
20260901205822 83 120 0.0 0.0 0.00 0.11 0.10 82 1013.7
20260901205319 83 95 0.0 0.0 0.00 0.11 0.10 81 1013.7
20260901204816 83 93 0.0 2.0 0.00 0.11 0.10 81 1013.5
20260901204313 83 89 1.0 2.0 0.00 0.11 0.10 82 1013.5
20260901203814 83 69 0.0 0.0 0.00 0.11 0.10 83 1013.4
20260901203310 82 69 0.0 0.0 0.00 0.11 0.10 83 1013.5
20260901202827 82 69 0.0 0.0 0.00 0.11 0.10 82 1013.6
20260901202325 82 69 0.0 1.0 0.00 0.11 0.10 81 1013.7
20260901201822 83 69 0.0 1.0 0.00 0.11 0.10 81 1013.7
20260901201318 83 308 0.0 0.0 0.00 0.11 0.10 81 1013.8
20260901200814 82 89 0.0 0.0 0.00 0.11 0.10 83 1013.8
20260901200315 82 77 0.0 1.0 0.00 0.11 0.10 82 1013.9
20260901195812 82 82 0.0 2.0 0.00 0.11 0.10 81 1013.8
20260901195329 83 94 0.0 3.0 0.00 0.11 0.10 81 1013.9
20260901194825 82 321 0.0 4.0 0.00 0.11 0.10 81 1013.9
20260901194322 83 198 1.0 3.0 0.00 0.11 0.10 81 1014.0
20260901193818 83 5 0.0 3.0 0.00 0.11 0.10 79 1014.0
20260901193314 83 125 0.0 2.0 0.00 0.11 0.10 79 1013.9
20260901192815 83 149 0.0 2.0 0.00 0.11 0.10 78 1013.9
20260901192311 82 100 0.0 3.0 0.00 0.11 0.10 78 1013.9
20260901191827 83 291 1.0 3.0 0.00 0.11 0.10 78 1013.9
20260901191324 83 94 0.0 3.0 0.00 0.11 0.10 82 1013.9
20260901190820 82 16 1.0 3.0 0.00 0.11 0.10 81 1014.0
20260901190337 81 115 0.0 0.0 0.00 0.11 0.10 82 1014.1
20260901185812 81 104 0.0 1.0 0.00 0.11 0.10 83 1014.1
20260901185329 81 130 0.0 8.0 0.00 0.11 0.10 83 1014.2
20260901184829 81 333 3.0 8.0 0.00 0.11 0.10 83 1014.2
20260901184326 81 189 0.0 2.0 0.00 0.11 0.10 84 1014.2
20260901183823 81 104 0.0 2.0 0.00 0.11 0.10 84 1014.1
20260901183319 81 24 0.0 1.0 0.00 0.11 0.10 83 1014.1
20260901182815 81 54 0.0 2.0 0.00 0.11 0.10 82 1014.1
20260901182312 81 120 0.0 3.0 0.00 0.11 0.10 84 1014.1
20260901181829 80 80 1.0 3.0 0.00 0.11 0.10 84 1014.0
20260901181330 80 111 0.0 2.0 0.00 0.11 0.10 86 1014.1
20260901180826 80 108 0.0 3.0 0.00 0.11 0.10 85 1014.1
20260901180323 80 319 1.0 3.0 0.00 0.11 0.10 86 1014.0
20260901175820 80 174 2.0 3.0 0.00 0.11 0.10 86 1014.0
20260901175317 79 135 1.0 3.0 0.00 0.11 0.10 88 1014.0
20260901174813 79 96 0.0 3.0 0.00 0.11 0.10 90 1013.9
20260901174330 79 117 1.0 2.0 0.00 0.11 0.10 91 1014.0
20260901173810 78 28 0.0 2.0 0.00 0.11 0.10 92 1014.0
20260901173327 77 69 0.0 2.0 0.00 0.11 0.10 92 1014.1
20260901172824 78 19 0.0 2.0 0.00 0.11 0.10 93 1014.2
20260901172321 77 176 0.0 1.0 0.00 0.11 0.10 94 1014.3
20260901171818 76 132 0.0 0.0 0.00 0.11 0.10 95 1014.3
20260901171315 75 132 0.0 0.0 0.00 0.11 0.10 95 1014.5
20260901170811 75 131 0.0 0.0 0.00 0.11 0.10 96 1014.8
20260901170312 75 109 0.0 0.0 0.00 0.11 0.10 96 1015.0
20260901165828 74 98 0.0 2.0 0.00 0.11 0.10 95 1015.4
20260901165325 74 338 1.0 2.0 0.00 0.11 0.10 95 1015.6
20260901164821 74 45 1.0 2.0 0.00 0.11 0.10 96 1015.3
20260901164318 74 341 1.0 2.0 0.00 0.11 0.10 96 1015.2
20260901163815 74 331 0.0 2.0 0.00 0.11 0.10 96 1015.1
20260901163312 74 74 0.0 2.0 0.00 0.11 0.10 96 1015.0
20260901162811 73 304 0.0 1.0 0.00 0.11 0.10 96 1015.0
20260901162329 73 322 0.0 2.0 0.00 0.11 0.10 96 1015.1
20260901161826 73 332 0.0 2.0 0.00 0.11 0.10 97 1015.1
20260901161322 73 273 0.0 0.0 0.00 0.11 0.10 96 1015.2
20260901160818 73 273 0.0 0.0 0.01 0.11 0.10 96 1015.3
20260901160315 72 273 0.0 0.0 0.01 0.11 0.10 96 1015.4
20260901155811 73 273 0.0 0.0 0.01 0.11 0.10 96 1015.6
20260901155313 73 273 0.0 0.0 0.02 0.11 0.10 96 1015.5
20260901154830 72 273 0.0 0.0 0.03 0.11 0.10 96 1015.6
20260901154326 73 273 0.0 0.0 0.05 0.11 0.10 96 1015.6
20260901153822 72 273 0.0 0.0 0.06 0.11 0.10 96 1015.9
20260901153316 72 273 0.0 0.0 0.06 0.11 0.10 96 1016.1
20260901152813 72 273 0.0 1.0 0.06 0.11 0.10 96 1016.2
20260901152311 72 273 0.0 0.0 0.06 0.11 0.10 96 1016.1
20260901151811 72 273 0.0 0.0 0.06 0.11 0.10 96 1016.4
20260901151328 72 273 0.0 1.0 0.06 0.11 0.10 96 1016.4
20260901150825 72 273 0.0 1.0 0.05 0.10 0.09 96 1016.3
20260901150322 72 273 0.0 0.0 0.05 0.10 0.09 96 1016.5
20260901145818 72 273 0.0 0.0 0.04 0.09 0.08 96 1016.5
20260901145316 72 273 0.0 0.0 0.04 0.09 0.08 95 1016.5
20260901144812 72 273 0.0 2.0 0.03 0.08 0.07 95 1016.5
20260901144313 72 342 0.0 4.0 0.01 0.06 0.05 95 1016.4
20260901143830 72 340 2.0 4.0 0.00 0.05 0.04 95 1016.6
20260901143326 72 360 0.0 2.0 0.00 0.05 0.04 95 1016.4
20260901142822 72 102 0.0 1.0 0.00 0.05 0.04 95 1016.3
20260901142320 72 102 0.0 1.0 0.00 0.05 0.04 95 1016.3
20260901141817 72 102 0.0 2.0 0.00 0.05 0.04 96 1016.3
20260901141314 72 87 0.0 2.0 0.00 0.05 0.04 96 1016.3
20260901140814 72 68 0.0 0.0 0.00 0.05 0.04 96 1016.1
20260901140311 72 103 0.0 0.0 0.00 0.05 0.04 96 1015.9
20260901135827 72 103 0.0 0.0 0.00 0.05 0.04 96 1015.6
20260901135325 72 103 0.0 0.0 0.00 0.05 0.04 96 1015.7
20260901134822 72 103 0.0 0.0 0.00 0.05 0.04 96 1015.6
20260901134319 72 103 0.0 0.0 0.00 0.05 0.04 96 1015.5
20260901133815 72 103 0.0 0.0 0.00 0.05 0.04 96 1015.7
20260901133316 72 103 0.0 0.0 0.00 0.05 0.04 96 1015.6
20260901132812 72 103 0.0 0.0 0.00 0.05 0.04 96 1015.8
20260901132330 72 103 0.0 0.0 0.00 0.05 0.04 97 1015.9
20260901131827 72 103 0.0 0.0 0.00 0.05 0.04 97 1016.0
20260901131324 71 103 0.0 0.0 0.00 0.05 0.04 97 1015.9
20260901130820 71 103 0.0 0.0 0.00 0.05 0.04 97 1015.9
20260901130317 71 103 0.0 0.0 0.00 0.05 0.04 97 1015.9
20260901125817 71 103 0.0 0.0 0.00 0.05 0.04 97 1015.8
20260901125315 71 103 0.0 0.0 0.00 0.05 0.04 97 1015.8
20260901124812 71 103 0.0 0.0 0.00 0.05 0.04 97 1015.9
20260901124328 71 103 0.0 0.0 0.00 0.05 0.04 97 1016.0
20260901123824 71 103 0.0 0.0 0.00 0.05 0.04 97 1016.0
20260901123321 70 103 0.0 0.0 0.00 0.05 0.04 97 1016.0
20260901122818 70 103 0.0 0.0 0.00 0.05 0.04 97 1016.0
20260901122319 70 103 0.0 0.0 0.00 0.05 0.04 97 1016.0
20260901121815 70 103 0.0 0.0 0.01 0.05 0.04 97 1016.0
20260901121312 70 104 0.0 0.0 0.01 0.05 0.04 97 1015.8
20260901120829 70 96 0.0 0.0 0.01 0.05 0.04 97 1015.8
20260901120326 70 355 0.0 0.0 0.02 0.05 0.04 97 1015.6
20260901115822 70 355 0.0 0.0 0.03 0.05 0.04 97 1015.6
20260901115319 70 355 0.0 0.0 0.03 0.05 0.04 97 1015.4
20260901114828 70 355 0.0 0.0 0.03 0.05 0.04 97 1015.5
20260901114325 70 355 0.0 0.0 0.03 0.05 0.04 97 1015.6
20260901113821 69 355 0.0 0.0 0.03 0.05 0.04 97 1015.6
20260901113318 69 355 0.0 0.0 0.03 0.05 0.04 97 1015.8
20260901112813 69 355 0.0 0.0 0.03 0.05 0.04 97 1016.0
20260901112330 69 355 0.0 0.0 0.03 0.05 0.04 97 1016.0
20260901111826 69 355 0.0 0.0 0.02 0.04 0.03 97 1015.9
20260901111326 69 355 0.0 0.0 0.02 0.04 0.03 97 1015.9
20260901110823 69 355 0.0 0.0 0.02 0.04 0.03 97 1015.8
20260901110319 70 355 0.0 0.0 0.01 0.03 0.02 97 1016.1
20260901105816 69 336 0.0 0.0 0.00 0.02 0.01 97 1016.4
20260901105313 69 336 0.0 0.0 0.00 0.02 0.01 97 1016.2
20260901104829 69 336 0.0 0.0 0.00 0.02 0.01 96 1016.1
20260901104326 69 336 0.0 0.0 0.00 0.02 0.01 96 1016.1
20260901103827 69 336 0.0 0.0 0.00 0.02 0.01 96 1016.1